Location: Granada
(37.1830°N, 3.6000°W)
Time: 19:28:15
(UTC+02:00)

Iridium 70 - Visible Passes

Search period start: 31 July 2015 00:00
Search period end: 10 August 2015 00:00
Orbit: 776 x 779 km, 86.4° (Epoch: 30 July)

Date Brightness Start Highest point End Pass type
(mag) Time Alt. Az. Time Alt. Az. Time Alt. Az.
31 Jul 7.8 02:17:53 10° NE 02:20:13 16° ENE 02:20:13 16° ENE visible
31 Jul 6.5 03:57:10 10° NNW 04:00:40 37° NW 04:00:40 37° NW visible
01 Aug 6.5 03:23:29 10° N 03:27:02 45° N 03:27:02 45° N visible
02 Aug 7.0 02:50:09 10° N 02:53:24 33° NE 02:53:24 33° NE visible
02 Aug 7.5 04:32:01 10° NW 04:33:52 16° WNW 04:33:52 16° WNW visible
03 Aug 7.6 02:17:14 10° NNE 02:19:47 21° NE 02:19:47 21° NE visible
03 Aug 7.1 03:57:32 10° NNW 04:00:14 25° NW 04:00:14 25° NW visible
04 Aug 8.1 01:45:17 10° NE 01:46:10 12° ENE 01:46:10 12° ENE visible
04 Aug 6.9 03:23:38 10° N 03:26:38 34° NNW 03:26:38 34° NNW visible
05 Aug 7.0 02:50:05 10° N 02:53:01 34° NNE 02:53:01 34° NNE visible
05 Aug 8.0 04:33:27 10° WNW 04:33:29 10° WNW 04:33:29 10° WNW visible
06 Aug 7.4 02:16:54 10° NNE 02:19:25 25° NE 02:19:25 25° NE visible
06 Aug 7.6 03:58:06 10° NNW 03:59:53 17° NW 03:59:53 17° NW visible
07 Aug 7.9 01:44:14 10° NNE 01:45:50 15° NE 01:45:50 15° NE visible
07 Aug 7.3 03:23:54 10° NNW 03:26:17 25° NNW 03:26:17 25° NNW visible
08 Aug 7.2 02:50:08 10° N 02:52:42 30° N 02:52:42 30° N visible
09 Aug 7.4 02:16:43 10° N 02:19:07 26° NNE 02:19:07 26° NNE visible
09 Aug 8.0 03:59:00 10° NW 03:59:35 12° NW 03:59:35 12° NW visible
